Regional Weather Roundup
Issued by NWS

Home | Current Version | Previous Version | Text Only | Print | Product List | Glossary Off
Versions: 1 2 3 4 5 6 7 8 9 10 11 12 13 14 15 16 17 18 19 20 21 22 23 24 25 26 27 28 29 30 31 32 33 34 35 36 37 38 39 40 41 42 43 44 45 46 47 48 49 50

000
ASUS43 KLOT 250910
RWRIL

ILLINOIS REGIONAL WEATHER ROUNDUP
NATIONAL WEATHER SERVICE CHICAGO/ROMEOVILLE IL
300 AM CST THU DEC 25 2014

NOTE: "FAIR" INDICATES FEW OR NO CLOUDS BELOW 12,000 FEET WITH NO
SIGNIFICANT WEATHER AND/OR OBSTRUCTIONS TO VISIBILITY.

* THESE STATIONS ARE NOT UNDER NWS QUALITY CONTROL. THEY ALSO MAY NOT
  REPORT WEATHER SUCH AS PRECIPITATION OR FOG.

ILZ001-002-007-009-015-016-024-251000-
NORTHWEST ILLINOIS

CITY           SKY/WX    TMP DP  RH WIND       PRES   REMARKS
MOLINE         FLURRIES  34  28  79 SW15      29.81R WCI  24
STERLING*      CLOUDY    34  27  75 W14       29.80R WCI  24
SAVANNA*       CLOUDY    34  29  83 W13       29.79R WCI  25
$$

ILZ003-004-008-010-011-017-018-251000-
NORTH CENTRAL ILLINOIS

CITY           SKY/WX    TMP DP  RH WIND       PRES   REMARKS
ROCKFORD       CLOUDY    34  29  82 W14       29.77R WCI  25
FREEPORT*      CLOUDY    32  28  86 W8        29.78R WCI  25
ROCHELLE*      CLOUDY    32  29  89 W9        29.78R WCI  24
DE KALB*       CLOUDY    32  30  92 W12       29.76R WCI  23
PERU*          CLOUDY    35  30  82 W12       29.81R WCI  27
$$

ILZ005-006-012>014-019>023-251000-
NORTHEAST ILLINOIS

CITY           SKY/WX    TMP DP  RH WIND       PRES   REMARKS
CHICAGO-OHARE  CLOUDY    36  30  79 W15       29.74R WCI  27
CHICAGO-MIDWAY CLOUDY    38  32  79 W13G22    29.76R WCI  30
AURORA         CLOUDY    34  29  82 W14       29.77R WCI  25
LANSING*       CLOUDY    36  32  85 W15G22    29.76R WCI  27
JOLIET*        CLOUDY    34  30  87 W7        29.80R WCI  27
WAUKEGAN       CLOUDY    36  30  79 W9G20     29.71R WCI  29
DUPAGE AIRPORT CLOUDY    35  31  85 W13       29.75R WCI  26
KANKAKEE*      CLOUDY    35  32  88 W15G22    29.81R WCI  25
WHEELING       CLOUDY    36  30  79 W14       29.75R WCI  27
MORRIS*        MOCLDY    33  31  93 W9        29.79R WCI  25
ROMEOVILLE*    CLOUDY    34  32  93 W14G20    29.78R WCI  24
NORTHERLY ISL    N/A     37  31  79 W9          N/A  WCI  30
$$

LMZ740>746-251000-
SOUTHERN LAKE MICHIGAN

STATION/POSITION SKY/WX   TEMP    WIND        PRES    VSBY  WAVE
                          AIR SEA DIR/SP/G                  HT/PER
                          (F)     (DEG/KT/KT) (MB)    (MI)  (FT/S)
WAUKEGAN HARBOR            37                   N/A
HARRISON CRIB              37     270/ 17/ 20   N/A
BURNHAM HARBOR             37     250/  6/ 15   N/A
CALUMET HARBOR             37     250/  7/ 15 1006.4R
MICHIGAN CITY              37     240/ 22/ 25   N/A
$$

ILZ025>027-034>036-040-047-049-050-058-095>099-251000-
WEST-CENTRAL ILLINOIS

CITY           SKY/WX    TMP DP  RH WIND       PRES   REMARKS
QUINCY         CLOUDY    35  28  75 W17G24    29.87R WCI  25
GALESBURG*     CLOUDY    33  30  88 SW10G21   29.82S WCI  25
MACOMB*        CLOUDY    34  31  90 W15       29.87R WCI  24
JACKSONVILLE*  CLOUDY    38  32  81 SW8       29.89R WCI  32
PITTSFIELD*    CLOUDY    37  31  80 SW8       29.90R WCI  30
$$

ILZ028>032-037-038-041>044-048-051>054-059>061-251000-
CENTRAL ILLINOIS

CITY           SKY/WX    TMP DP  RH WIND       PRES   REMARKS
PONTIAC        CLOUDY    35  32  88 W13       29.83R WCI  27
BLOOMINGTON    CLOUDY    35  31  86 W14       29.85R WCI  26
DECATUR        CLOUDY    36  31  82 W9        29.89R WCI  29
PEORIA         CLOUDY    36  28  73 W12       29.85R WCI  28
LACON*         CLOUDY    35  29  78 SW8       29.82R WCI  28
LINCOLN*       DRIZZLE   36  33  87 SW6       29.88R WCI  31
SPRINGFIELD    CLOUDY    36  32  85 W7        29.89R WCI  30
TAYLORVILLE    CLOUDY    34  32  93 SW10      29.90R WCI  26
$$

ILZ033-039-045-046-055>057-062-063-251000-
EAST-CENTRAL ILLINOIS

CITY           SKY/WX    TMP DP  RH WIND       PRES   REMARKS
CHAMPAIGN      CLOUDY    35  32  88 W13       29.87R WCI  26
DANVILLE*      CLOUDY    35  30  83 W16G24    29.83R WCI  25
RANTOUL*       CLOUDY    37  32  84 W12       29.85R WCI  29
MATTOON        FLURRIES  35  32  88 W9        29.89R WCI  28
PARIS*         CLOUDY    36  34  92 W8        29.89R WCI  30
$$

ILZ079-100>102-251000-
SOUTHWEST ILLINOIS

CITY           SKY/WX    TMP DP  RH WIND       PRES   REMARKS
ALTON          CLOUDY    38  32  81 W13       29.93R WCI  30
BELLEVILLE     CLOUDY    38  35  89 SW6       29.93R WCI  33
CAHOKIA*       CLOUDY    39  32  76 SW5       29.94R
SPARTA*        CLOUDY    37  33  86 SW8       29.96R WCI  30
$$

ILZ064>066-069>071-074>076-080>082-084>086-088>090-092>094-251000-
SOUTH-CENTRAL ILLINOIS

CITY           SKY/WX    TMP DP  RH WIND       PRES   REMARKS
CARBONDALE     LGT RAIN  38  33  82 W6        29.98R WCI  33
CAIRO*         CLOUDY    42  35  75 W7        30.00R
EFFINGHAM*     CLOUDY    37  32  82 SW7       29.93R WCI  31
MARION         CLOUDY    39  34  81 SW7       29.99R WCI  34
MT. VERNON     CLOUDY    37  32  81 W7        29.96R WCI  32
CENTRALIA*     CLOUDY    36  33  91 CALM      29.95R
SALEM*         CLOUDY    38  35  88 W6        29.95R WCI  34
METROPOLIS*    CLOUDY    40  35  82 SW6       29.98R
$$

ILZ067-068-072-073-078-083-087-091-251000-
SOUTHEAST ILLINOIS

CITY           SKY/WX    TMP DP  RH WIND       PRES   REMARKS
LAWRENCEVILLE  CLOUDY    38  32  79 W8        29.94R WCI  32
FLORA*         CLEAR     37  33  83 W7        29.94R WCI  32
FAIRFIELD*     CLOUDY    38  35  89 SW6       29.94R WCI  33
HARRISBURG*    CLOUDY    39  34  82 W7        29.99R WCI  34
ROBINSON*      CLOUDY    37  34  89 W9        29.93R WCI  30
CARMI*         CLOUDY    40  38  91 SW7       29.96R
$$

ABBREVIATIONS USED IN REMARKS
   TC - TEMPERATURE IN CELSIUS
  WCI - WIND CHILL INDEX
   HX - HEAT INDEX
  VSB - VISIBILITY
$$



USA.gov is the U.S. government's official web portal to all federal, state and local government web resources and services.